W5TTY Weather Reports


time (UTC)temp
C
wind
direction
speed
KPH
gust
KPH
rain 1hr
cm
rain 24hr
cm
rain mn
cm
humidity
%
barometer
mb
20260504221318 26 180 11.3 27.4 0.00 0.00 0.00 67 1009.5
20260504220850 26 120 11.3 27.4 0.00 0.00 0.00 67 1009.6
20260504220333 26 183 14.5 29.0 0.00 0.00 0.00 67 1009.7
20260504215839 26 146 14.5 29.0 0.00 0.00 0.00 67 1009.7
20260504215321 26 236 11.3 20.9 0.00 0.00 0.00 67 1009.7
20260504214826 26 161 12.9 24.1 0.00 0.00 0.00 67 1009.7
20260504214328 26 142 9.7 24.1 0.00 0.00 0.00 67 1009.9
20260504213829 26 190 12.9 24.1 0.00 0.00 0.00 67 1010.1
20260504213336 26 153 4.8 17.7 0.00 0.00 0.00 67 1010.1
20260504212848 26 150 9.7 22.5 0.00 0.00 0.00 67 1010.2
20260504212329 26 175 9.7 19.3 0.00 0.00 0.00 67 1010.2
20260504211833 26 185 11.3 22.5 0.00 0.00 0.00 67 1010.3
20260504211335 26 207 11.3 30.6 0.00 0.00 0.00 67 1010.4
20260504210819 26 181 11.3 30.6 0.00 0.00 0.00 67 1010.5
20260504210330 26 205 11.3 22.5 0.00 0.00 0.00 67 1010.7
20260504205833 26 155 11.3 24.1 0.00 0.00 0.00 68 1010.8
20260504205337 26 216 12.9 29.0 0.00 0.00 0.00 68 1010.8
20260504204842 26 208 11.3 27.4 0.00 0.00 0.00 67 1010.8
20260504204351 26 184 9.7 27.4 0.00 0.00 0.00 67 1011.1
20260504203839 26 211 12.9 32.2 0.00 0.00 0.00 68 1011.2
20260504203322 26 197 11.3 32.2 0.00 0.00 0.00 68 1011.2
20260504202855 26 217 14.5 29.0 0.00 0.00 0.00 68 1011.3
20260504202337 26 196 8.0 29.0 0.00 0.00 0.00 68 1011.2
20260504201844 26 150 14.5 25.7 0.00 0.00 0.00 68 1011.3
20260504201325 26 175 8.0 25.7 0.00 0.00 0.00 68 1011.6
20260504200831 26 193 8.0 19.3 0.00 0.00 0.00 68 1011.7
20260504200317 26 134 9.7 25.7 0.00 0.00 0.00 68 1011.7
20260504195824 26 202 12.9 25.7 0.00 0.00 0.00 69 1011.6
20260504195327 26 163 12.9 25.7 0.00 0.00 0.00 69 1011.9
20260504194833 26 209 9.7 20.9 0.00 0.00 0.00 69 1012.0
20260504194318 26 187 11.3 20.9 0.00 0.00 0.00 69 1012.1
20260504193825 26 195 8.0 25.7 0.00 0.00 0.00 69 1012.2
20260504193329 26 149 9.7 22.5 0.00 0.00 0.00 69 1012.2
20260504192834 26 187 9.7 25.7 0.00 0.00 0.00 69 1012.3
20260504192319 26 199 11.3 24.1 0.00 0.00 0.00 70 1012.4
20260504191850 26 153 11.3 25.7 0.00 0.00 0.00 70 1012.5
20260504191337 26 134 12.9 25.7 0.00 0.00 0.00 70 1012.4
20260504190844 26 227 11.3 25.7 0.00 0.00 0.00 70 1012.3
20260504190326 26 161 11.3 27.4 0.00 0.00 0.00 70 1012.5
20260504185840 26 193 11.3 27.4 0.00 0.00 0.00 70 1012.7
20260504185343 26 138 12.9 24.1 0.00 0.00 0.00 71 1012.6
20260504184846 26 222 12.9 22.5 0.00 0.00 0.00 71 1012.7
20260504184327 26 173 12.9 32.2 0.00 0.00 0.00 71 1012.8
20260504183902 26 192 12.9 27.4 0.00 0.00 0.00 71 1013.0
20260504183346 25 206 8.0 27.4 0.00 0.00 0.00 72 1013.2
20260504182849 25 176 4.8 29.0 0.00 0.00 0.00 72 1013.2
20260504182355 25 149 12.9 29.0 0.00 0.00 0.00 72 1013.2
20260504181842 25 198 11.3 27.4 0.00 0.00 0.00 72 1013.3
20260504181325 25 171 14.5 30.6 0.00 0.00 0.00 72 1013.1
20260504180830 25 200 14.5 30.6 0.00 0.00 0.00 73 1013.3
20260504180336 25 181 11.3 32.2 0.00 0.00 0.00 73 1013.3
20260504175824 25 237 16.1 32.2 0.00 0.00 0.00 73 1013.4
20260504175325 25 153 11.3 32.2 0.00 0.00 0.00 73 1013.5
20260504174828 25 186 16.1 24.1 0.00 0.00 0.00 73 1013.7
20260504174333 24 213 9.7 20.9 0.00 0.00 0.00 74 1013.7
20260504173839 24 198 12.9 35.4 0.00 0.00 0.00 74 1013.7
20260504173329 24 226 9.7 30.6 0.00 0.00 0.00 74 1013.8
20260504172832 24 140 12.9 25.7 0.00 0.00 0.00 74 1013.8
20260504172335 24 157 8.0 25.7 0.00 0.00 0.00 74 1013.9
20260504171849 24 190 9.7 30.6 0.00 0.00 0.00 74 1014.0
20260504171329 24 208 16.1 30.6 0.00 0.00 0.00 75 1014.2
20260504170849 24 190 11.3 25.7 0.00 0.00 0.00 75 1014.2
20260504170335 23 148 9.7 35.4 0.00 0.00 0.00 75 1014.2
20260504160325 22 178 14.5 29.0 0.00 0.00 0.00 76 1014.8
20260504150821 21 172 11.3 22.5 0.00 0.00 0.00 77 1015.0
20260504150320 21 196 9.7 22.5 0.00 0.00 0.00 77 1015.1
20260504141328 19 213 9.7 20.9 0.00 0.00 0.00 76 1015.2
20260504140831 18 144 8.0 19.3 0.00 0.00 0.00 76 1015.3
20260504140336 18 242 9.7 19.3 0.00 0.00 0.00 76 1015.2
20260504130318 15 173 8.0 12.9 0.00 0.00 0.00 74 1015.2
20260504110337 13 143 1.6 3.2 0.00 0.00 0.00 70 1014.8
20260504033321 17 188 4.8 8.0 0.00 0.00 0.00 60 1017.4
20260504032853 17 191 3.2 8.0 0.00 0.00 0.00 60 1017.2
20260504032336 17 182 3.2 6.4 0.00 0.00 0.00 60 1017.3
20260504031842 17 188 3.2 8.0 0.00 0.00 0.00 59 1017.3
20260504031327 17 192 4.8 8.0 0.00 0.00 0.00 59 1017.3
20260504030832 17 189 4.8 6.4 0.00 0.00 0.00 59 1017.3
20260504030338 17 185 4.8 8.0 0.00 0.00 0.00 59 1017.3
20260504025823 17 187 3.2 8.0 0.00 0.00 0.00 59 1017.3
20260504025328 17 189 4.8 8.0 0.00 0.00 0.00 59 1017.3
20260504024851 17 182 3.2 8.0 0.00 0.00 0.00 58 1017.4
20260504024335 17 182 3.2 8.0 0.00 0.00 0.00 58 1017.3
20260504023839 18 174 4.8 8.0 0.00 0.00 0.00 58 1017.2
20260504023349 18 169 4.8 9.7 0.00 0.00 0.00 58 1017.2
20260504022834 18 177 3.2 8.0 0.00 0.00 0.00 58 1017.1
20260504022336 18 172 4.8 8.0 0.00 0.00 0.00 58 1017.0
20260504021823 18 171 4.8 8.0 0.00 0.00 0.00 58 1017.0
20260504021327 18 182 3.2 8.0 0.00 0.00 0.00 58 1017.0
20260504020831 18 192 4.8 9.7 0.00 0.00 0.00 57 1017.0
20260504020339 18 161 4.8 9.7 0.00 0.00 0.00 57 1017.0
20260504015819 19 171 4.8 8.0 0.00 0.00 0.00 57 1016.9
20260504015331 19 170 3.2 8.0 0.00 0.00 0.00 57 1016.9
20260504014840 20 173 3.2 6.4 0.00 0.00 0.00 57 1016.9
20260504014322 20 160 3.2 8.0 0.00 0.00 0.00 57 1016.9
20260504013824 20 174 3.2 6.4 0.00 0.00 0.00 57 1016.9
20260504013328 20 149 3.2 8.0 0.00 0.00 0.00 57 1016.8
20260504012846 20 175 0.0 6.4 0.00 0.00 0.00 57 1016.8
20260504012347 21 170 3.2 9.7 0.00 0.00 0.00 57 1016.8
20260504011827 21 159 4.8 9.7 0.00 0.00 0.00 57 1016.7
20260504011334 21 155 4.8 11.3 0.00 0.00 0.00 57 1016.7
20260504010843 21 172 4.8 11.3 0.00 0.00 0.00 57 1016.7
20260504010348 22 182 3.2 8.0 0.00 0.00 0.00 57 1016.9
20260504005840 22 183 4.8 6.4 0.00 0.00 0.00 58 1016.9
20260504005324 22 188 3.2 8.0 0.00 0.00 0.00 58 1016.8
20260504004824 22 188 1.6 8.0 0.00 0.00 0.00 58 1016.6
20260504004352 22 174 4.8 8.0 0.00 0.00 0.00 58 1016.7
20260504003858 23 173 3.2 9.7 0.00 0.00 0.00 58 1016.8
20260504003323 23 171 4.8 9.7 0.00 0.00 0.00 58 1016.9
20260504002832 23 186 3.2 6.4 0.00 0.00 0.00 59 1016.8
20260504002318 23 186 3.2 6.4 0.00 0.00 0.00 59 1016.9
20260504001822 23 184 4.8 11.3 0.00 0.00 0.00 59 1016.9
20260504001325 23 150 4.8 14.5 0.00 0.00 0.00 59 1017.0
20260504000837 24 183 4.8 14.5 0.00 0.00 0.00 60 1017.0
20260504000342 24 171 4.8 12.9 0.00 0.00 0.00 60 1017.0
20260503235820 24 197 6.4 11.3 0.00 0.00 0.00 60 1017.1
20260503235330 24 185 3.2 12.9 0.00 0.00 0.00 60 1017.2
20260503234836 25 219 8.0 12.9 0.00 0.00 0.00 60 1017.2
20260503234320 25 201 4.8 14.5 0.00 0.00 0.00 61 1017.3
20260503233828 25 204 4.8 19.3 0.00 0.00 0.00 61 1017.3
20260503232823 25 229 9.7 17.7 0.00 0.00 0.00 62 1017.3
20260503232327 25 166 6.4 14.5 0.00 0.00 0.00 62 1017.3
20260503231826 25 188 6.4 20.9 0.00 0.00 0.00 62 1017.3
20260503231333 25 136 9.7 20.9 0.00 0.00 0.00 62 1017.3
20260503230819 25 172 6.4 16.1 0.00 0.00 0.00 62 1017.2
20260503230322 25 173 6.4 16.1 0.00 0.00 0.00 63 1017.3
20260503225856 25 142 4.8 16.1 0.00 0.00 0.00 63 1017.3
20260503225322 25 171 8.0 17.7 0.00 0.00 0.00 63 1017.4
20260503224825 25 137 6.4 17.7 0.00 0.00 0.00 63 1017.4
20260503224328 25 152 9.7 20.9 0.00 0.00 0.00 63 1017.4
20260503223859 25 150 6.4 20.9 0.00 0.00 0.00 63 1017.5
20260503223345 25 128 4.8 17.7 0.00 0.00 0.00 64 1017.5
20260503222829 25 144 4.8 14.5 0.00 0.00 0.00 64 1017.4
20260503222333 25 136 4.8 14.5 0.00 0.00 0.00 65 1017.6
20260503221821 25 146 6.4 16.1 0.00 0.00 0.00 65 1017.7
20260503221349 25 121 4.8 16.1 0.00 0.00 0.00 66 1017.6